Ontario, OR

8:10 PM MST on December 05, 2019 (GMT -0700)
Ontario Municipal

Weather History for KONO - October, 2019

Change the Weather History Date:

Wednesday, October 23, 2019

  Actual Average Record
Temperature  
Mean Temperature 53 °F 47 °F  
Max Temperature 65 °F 62 °F 75 °F (1959)
Min Temperature 40 °F 32 °F 18 °F (1984)
Degree Days  
Heating Degree Days 12 18  
Month to date heating degree days 382 300  
Since 1 July heating degree days 464 434  
Cooling Degree Days 0 0  
Month to date cooling degree days 0 0  
Year to date cooling degree days 1146 851  
Growing Degree Days 4 (Base 50)    
Moisture  
Dew Point 30 °F    
Average Humidity 40    
Maximum Humidity 58    
Minimum Humidity 22    
Precipitation  
Precipitation 0.00 in 0.02 in 0.75 in (1970)
Month to date precipitation 0.71 0.40  
Year to date precipitation 11.66 7.05  
Sea Level Pressure  
Sea Level Pressure 30.37 in    
Wind  
Wind Speed 13 mph (NNW)    
Max Wind Speed 26 mph    
Max Gust Speed 34 mph    
Visibility 3 miles    
Events      
T = Trace of Precipitation, MM = Missing Value Source: NWS Daily Summary

Daily Weather History Graph

Daily Weather History Graph

Search for Another Location

Airport or City:

Astronomy

Oct. 23, 2019 Rise Set
Actual Time 8:12 AM MDT 6:51 PM MDT
Civil Twilight 7:43 AM MDT 7:20 PM MDT
Nautical Twilight 7:09 AM MDT 7:54 PM MDT
Astronomical Twilight 6:36 AM MDT 8:27 PM MDT
Moon 2:21 AM MDT (10/23) 4:58 PM MDT (10/23)
Length of Visible Light 11h 37m
Length of Day
10h 38m
Waning Crescent, 26% of the Moon is Illuminated
Oct 23
Waning Crescent
Oct 27
New
Nov 4
First Quarter
Nov 12
Full
Nov 19
Last Quarter

Hourly Weather History & Observations

Time (MDT) Temp. Windchill Dew Point Humidity Pressure Visibility Wind Dir Wind Speed Gust Speed Precip Events Conditions
12:53 AM 57.9 °F - 32.0 °F 37% 30.27 in 10.0 mi NW 12.7 mph - N/A   Clear
2:53 AM 55.9 °F - 28.9 °F 36% 30.28 in 3.0 mi NNW 21.9 mph 32.2 mph N/A   Haze
3:04 AM 54.0 °F - 30.0 °F 40% 30.28 in 2.5 mi NW 18.4 mph 28.8 mph N/A   Haze
3:12 AM 54.0 °F - 30.0 °F 40% 30.28 in 2.0 mi NW 21.9 mph 26.5 mph N/A   Haze
3:21 AM 54.0 °F - 30.9 °F 41% 30.29 in 2.5 mi NNW 17.3 mph 26.5 mph N/A   Haze
3:37 AM 54.0 °F - 30.9 °F 41% 30.28 in 4.0 mi NNW 23.0 mph 28.8 mph N/A   Haze
3:53 AM 54.0 °F - 32.0 °F 43% 30.28 in 4.0 mi NNW 23.0 mph 29.9 mph N/A   Haze
4:53 AM 53.1 °F - 34.0 °F 48% 30.29 in 4.0 mi NNW 26.5 mph - N/A   Haze
5:53 AM 51.1 °F - 34.0 °F 52% 30.30 in 6.0 mi NW 13.8 mph - N/A   Haze
6:53 AM 51.1 °F - 33.1 °F 50% 30.33 in 3.0 mi NNW 15.0 mph 25.3 mph N/A   Haze
7:53 AM 50.0 °F - 33.1 °F 52% 30.36 in 5.0 mi NW 15.0 mph - N/A   Haze
8:19 AM 46.9 °F - 33.1 °F 59% 30.36 in 2.0 mi NW 10.4 mph - N/A   Haze
8:24 AM 48.0 °F - 33.1 °F 56% 30.36 in 1.0 mi NW 12.7 mph - N/A   Haze
8:33 AM 48.9 °F - 33.1 °F 54% 30.36 in 0.8 mi WNW 12.7 mph - N/A   Haze
8:53 AM 48.9 °F - 33.1 °F 54% 30.38 in 0.8 mi NW 12.7 mph - N/A   Haze
9:19 AM 50.0 °F - 33.1 °F 52% 30.38 in 1.0 mi NW 13.8 mph - N/A   Haze
9:53 AM 52.0 °F - 33.1 °F 49% 30.40 in 1.0 mi NW 17.3 mph - N/A   Haze
10:53 AM 55.0 °F - 33.1 °F 43% 30.42 in 1.0 mi NNW 15.0 mph - N/A   Haze
11:18 AM 55.9 °F - 33.1 °F 42% 30.41 in 2.0 mi NW 17.3 mph - N/A   Haze
11:20 AM 55.9 °F - 32.0 °F 40% 30.41 in 3.0 mi NW 17.3 mph - N/A   Haze
11:41 AM 57.9 °F - 32.0 °F 37% 30.42 in 2.0 mi NNW 13.8 mph - N/A   Haze
11:53 AM 59.0 °F - 30.9 °F 35% 30.42 in 2.5 mi NNW 15.0 mph - N/A   Haze
12:02 PM 59.0 °F - 30.0 °F 33% 30.41 in 2.0 mi NW 13.8 mph - N/A   Haze
12:08 PM 59.0 °F - 30.0 °F 33% 30.41 in 3.0 mi NNW 13.8 mph - N/A   Haze
12:19 PM 59.0 °F - 28.9 °F 32% 30.41 in 2.5 mi NNW 11.5 mph - N/A   Haze
12:32 PM 60.1 °F - 28.9 °F 31% 30.41 in 3.0 mi NNW 12.7 mph 18.4 mph N/A   Haze
12:53 PM 61.0 °F - 28.9 °F 30% 30.40 in 2.5 mi NNW 11.5 mph - N/A   Haze
1:04 PM 61.0 °F - 28.9 °F 30% 30.40 in 3.0 mi NNW 12.7 mph - N/A   Haze
1:16 PM 61.0 °F - 28.9 °F 30% 30.40 in 2.5 mi NNW 11.5 mph - N/A   Haze
1:32 PM 61.0 °F - 28.9 °F 30% 30.40 in 2.5 mi NNW 11.5 mph - N/A   Haze
1:45 PM 62.1 °F - 28.0 °F 28% 30.40 in 3.0 mi North 9.2 mph - N/A   Haze
1:53 PM 62.1 °F - 28.0 °F 28% 30.40 in 2.5 mi NNW 10.4 mph - N/A   Haze
2:03 PM 63.0 °F - 28.9 °F 28% 30.39 in 2.0 mi NNW 10.4 mph - N/A   Haze
2:09 PM 62.1 °F - 28.0 °F 28% 30.39 in 3.0 mi North 8.1 mph - N/A   Haze
2:53 PM 62.1 °F - 26.1 °F 25% 30.38 in 3.0 mi WNW 11.5 mph - N/A   Haze
3:25 PM 63.0 °F - 26.1 °F 25% 30.38 in 2.5 mi NNW 6.9 mph - N/A   Haze
3:53 PM 63.0 °F - 25.0 °F 24% 30.37 in 2.5 mi North 8.1 mph - N/A   Haze
4:01 PM 64.0 °F - 26.1 °F 24% 30.37 in 6.0 mi NNE 10.4 mph - N/A   Haze
4:53 PM 64.0 °F - 26.1 °F 24% 30.37 in 2.5 mi NNW 9.2 mph - N/A   Haze
5:00 PM 64.0 °F - 25.0 °F 23% 30.37 in 3.0 mi NW 10.4 mph - N/A   Haze
5:24 PM 63.0 °F - 24.1 °F 23% 30.37 in 2.5 mi NNW 11.5 mph - N/A   Haze
5:53 PM 62.1 °F - 25.0 °F 24% 30.38 in 2.5 mi NNW 11.5 mph - N/A   Haze
6:53 PM 55.0 °F - 27.0 °F 34% 30.39 in 3.0 mi NW 8.1 mph - N/A   Haze
7:53 PM 53.1 °F - 26.1 °F 35% 30.40 in 3.0 mi NNW 11.5 mph - N/A   Haze
8:53 PM 50.0 °F - 26.1 °F 39% 30.42 in 8.0 mi NNW 5.8 mph - N/A   Clear
9:53 PM 50.0 °F - 26.1 °F 39% 30.43 in 10.0 mi North 10.4 mph - N/A   Clear
10:53 PM 45.0 °F 40.6 °F 27.0 °F 49% 30.45 in 10.0 mi NNW 8.1 mph - N/A   Clear
11:53 PM 43.0 °F 38.8 °F 27.0 °F 53% 30.47 in 10.0 mi WNW 6.9 mph - N/A   Clear